| time (UTC) | temp C | wind direction | speed KPH | gust KPH | rain 1hr cm | rain 24hr cm | rain mn cm | humidity % | barometer mb |
| 20260502235124 | 35 | 146 | 17.7 | 30.6 | 19.25 | 0.00 | 0.00 | 96 | 10.7 |
| 20260502234528 | 35 | 142 | 17.7 | 25.7 | 19.46 | 0.00 | 0.00 | 96 | 10.7 |
| 20260502234028 | 35 | 130 | 19.3 | 29.0 | 19.33 | 0.00 | 0.00 | 96 | 10.4 |
| 20260502233530 | 35 | 131 | 17.7 | 27.4 | 19.25 | 0.00 | 0.00 | 96 | 10.6 |
| 20260502233050 | 35 | 133 | 16.1 | 29.0 | 19.63 | 0.00 | 0.00 | 96 | 10.6 |
| 20260502232555 | 35 | 137 | 16.1 | 24.1 | 19.53 | 0.00 | 0.00 | 96 | 10.2 |
| 20260502232120 | 35 | 131 | 16.1 | 27.4 | 19.76 | 0.00 | 0.00 | 96 | 10.0 |
| 20260502231528 | 35 | 142 | 14.5 | 24.1 | 20.19 | 0.00 | 0.00 | 96 | 10.5 |
| 20260502231048 | 35 | 146 | 17.7 | 25.7 | 20.90 | 0.00 | 0.00 | 96 | 10.5 |
| 20260502230531 | 35 | 131 | 17.7 | 30.6 | 21.49 | 0.00 | 0.00 | 96 | 10.4 |
| 20260502230029 | 35 | 127 | 17.7 | 27.4 | 21.72 | 0.00 | 0.00 | 96 | 10.4 |
| 20260502225609 | 35 | 127 | 17.7 | 25.7 | 22.20 | 0.00 | 0.00 | 96 | 10.5 |
| 20260502225123 | 35 | 118 | 20.9 | 30.6 | 22.53 | 0.00 | 0.00 | 96 | 10.4 |
| 20260502224529 | 35 | 141 | 16.1 | 29.0 | 22.68 | 0.00 | 0.00 | 96 | 10.5 |
| 20260502224049 | 35 | 127 | 16.1 | 29.0 | 23.47 | 0.00 | 0.00 | 96 | 10.2 |
| 20260502223552 | 35 | 131 | 16.1 | 29.0 | 24.03 | 0.00 | 0.00 | 96 | 10.3 |
| 20260502223036 | 35 | 135 | 14.5 | 29.0 | 24.10 | 0.00 | 0.00 | 96 | 10.5 |
| 20260502222649 | 35 | 140 | 17.7 | 27.4 | 24.92 | 0.00 | 0.00 | 96 | 10.6 |
| 20260502222126 | 35 | 144 | 17.7 | 27.4 | 25.07 | 0.00 | 0.00 | 96 | 10.9 |
| 20260502221528 | 35 | 140 | 16.1 | 30.6 | 25.10 | 0.00 | 0.00 | 96 | 10.6 |
| 20260502221112 | 35 | 154 | 16.1 | 27.4 | 25.32 | 0.00 | 0.00 | 96 | 10.6 |
| 20260502220555 | 35 | 139 | 16.1 | 25.7 | 2.54 | 0.00 | 0.00 | 96 | 10.5 |
| 20260502220026 | 35 | 142 | 19.3 | 29.0 | 2.59 | 0.00 | 0.00 | 96 | 10.0 |
| 20260502215556 | 35 | 140 | 19.3 | 30.6 | 2.62 | 0.00 | 0.00 | 96 | 9.6 |
| 20260502215057 | 35 | 136 | 17.7 | 29.0 | 2.64 | 0.00 | 0.00 | 96 | 9.6 |
| 20260502214528 | 35 | 131 | 17.7 | 30.6 | 2.69 | 0.00 | 0.00 | 95 | 9.2 |
| 20260502214052 | 35 | 138 | 19.3 | 29.0 | 2.69 | 0.00 | 0.00 | 96 | 9.3 |
| 20260502213528 | 35 | 146 | 17.7 | 29.0 | 2.77 | 0.00 | 0.00 | 96 | 9.5 |
| 20260502213028 | 35 | 132 | 19.3 | 32.2 | 2.84 | 0.00 | 0.00 | 95 | 9.2 |
| 20260502212644 | 35 | 127 | 17.7 | 29.0 | 2.84 | 0.00 | 0.00 | 95 | 9.1 |
| 20260502212119 | 35 | 123 | 19.3 | 32.2 | 2.87 | 0.00 | 0.00 | 96 | 8.8 |
| 20260502211528 | 35 | 132 | 19.3 | 32.2 | 2.92 | 0.00 | 0.00 | 96 | 8.9 |
| 20260502211112 | 35 | 146 | 17.7 | 29.0 | 2.95 | 0.00 | 0.00 | 96 | 9.0 |
| 20260502210532 | 35 | 131 | 14.5 | 25.7 | 2.97 | 0.00 | 0.00 | 96 | 8.8 |
| 20260502210050 | 35 | 121 | 17.7 | 29.0 | 2.97 | 0.00 | 0.00 | 96 | 8.9 |
| 20260502205614 | 35 | 121 | 16.1 | 25.7 | 2.97 | 0.00 | 0.00 | 95 | 8.8 |
| 20260502205123 | 35 | 145 | 16.1 | 30.6 | 2.97 | 0.00 | 0.00 | 95 | 9.1 |
| 20260502204530 | 35 | 142 | 16.1 | 27.4 | 2.97 | 0.00 | 0.00 | 95 | 9.0 |
| 20260502204111 | 35 | 136 | 16.1 | 29.0 | 3.00 | 0.00 | 0.00 | 96 | 9.3 |
| 20260502203530 | 35 | 139 | 16.1 | 25.7 | 3.00 | 0.00 | 0.00 | 95 | 9.3 |
| 20260502203052 | 35 | 124 | 16.1 | 25.7 | 2.97 | 0.00 | 0.00 | 96 | 9.0 |
| 20260502202613 | 35 | 139 | 14.5 | 25.7 | 2.97 | 0.00 | 0.00 | 96 | 9.4 |
| 20260502202058 | 35 | 147 | 14.5 | 22.5 | 2.97 | 0.00 | 0.00 | 96 | 9.5 |
| 20260502201554 | 35 | 132 | 14.5 | 22.5 | 3.00 | 0.00 | 0.00 | 96 | 8.8 |
| 20260502201050 | 35 | 152 | 12.9 | 24.1 | 2.97 | 0.00 | 0.00 | 96 | 8.9 |
| 20260502200555 | 35 | 145 | 8.0 | 24.1 | 2.97 | 0.00 | 0.00 | 96 | 9.2 |
| 20260502200039 | 35 | 130 | 14.5 | 25.7 | 2.97 | 0.00 | 0.00 | 96 | 8.8 |
| 20260502195648 | 35 | 160 | 9.7 | 24.1 | 2.97 | 0.00 | 0.00 | 95 | 8.8 |
| 20260502195126 | 35 | 144 | 12.9 | 19.3 | 3.00 | 0.00 | 0.00 | 95 | 8.8 |
| 20260502194529 | 35 | 130 | 12.9 | 22.5 | 3.02 | 0.00 | 0.00 | 96 | 8.8 |
| 20260502194031 | 36 | 147 | 14.5 | 27.4 | 3.02 | 0.00 | 0.00 | 97 | 9.2 |
| 20260502193550 | 35 | 127 | 14.5 | 22.5 | 3.00 | 0.00 | 0.00 | 96 | 9.2 |
| 20260502193051 | 35 | 191 | 9.7 | 22.5 | 3.00 | 0.00 | 0.00 | 96 | 9.8 |
| 20260502192632 | 35 | 155 | 3.2 | 6.4 | 3.00 | 0.00 | 0.00 | 96 | 9.9 |
| 20260502192116 | 35 | 91 | 11.3 | 17.7 | 3.00 | 0.00 | 0.00 | 95 | 10.3 |
| 20260502191550 | 34 | 215 | 8.0 | 12.9 | 2.97 | 0.00 | 0.00 | 94 | 10.7 |
| 20260502191109 | 35 | 180 | 6.4 | 16.1 | 2.97 | 0.00 | 0.00 | 95 | 10.5 |
| 20260502190532 | 35 | 202 | 8.0 | 11.3 | 2.95 | 0.00 | 0.00 | 95 | 10.2 |
| 20260502190031 | 35 | 134 | 6.4 | 12.9 | 2.90 | 0.00 | 0.00 | 95 | 10.3 |
| 20260502185622 | 34 | 192 | 6.4 | 9.7 | 2.90 | 0.00 | 0.00 | 94 | 10.1 |
| 20260502185125 | 35 | 168 | 9.7 | 16.1 | 2.84 | 0.00 | 0.00 | 95 | 10.0 |
| 20260502184530 | 34 | 204 | 6.4 | 12.9 | 2.82 | 0.00 | 0.00 | 94 | 10.7 |
| 20260502184028 | 34 | 242 | 6.4 | 11.3 | 2.82 | 0.00 | 0.00 | 94 | 10.5 |
| 20260502183553 | 34 | 216 | 8.0 | 16.1 | 2.79 | 0.00 | 0.00 | 94 | 10.5 |
| 20260502183032 | 34 | 191 | 6.4 | 11.3 | 2.77 | 0.00 | 0.00 | 94 | 9.8 |
| 20260502182125 | 33 | 215 | 8.0 | 12.9 | 2.67 | 0.00 | 0.00 | 93 | 9.9 |
| 20260502181529 | 33 | 270 | 6.4 | 11.3 | 2.64 | 0.00 | 0.00 | 93 | 10.4 |
| 20260502181050 | 33 | 291 | 4.8 | 8.0 | 2.64 | 0.00 | 0.00 | 92 | 10.9 |
| 20260502180552 | 33 | 292 | 4.8 | 8.0 | 2.62 | 0.00 | 0.00 | 92 | 11.3 |
| 20260502164031 | 30 | 304 | 6.4 | 9.7 | 20.24 | 0.00 | 0.00 | 86 | 26.0 |
| 20260502163531 | 29 | 305 | 4.8 | 8.0 | 19.74 | 0.00 | 0.00 | 85 | 29.2 |
| 20260502163118 | 29 | 299 | 4.8 | 6.4 | 19.20 | 0.00 | 0.00 | 85 | 29.2 |
| 20260502162704 | 28 | 316 | 6.4 | 9.7 | 18.67 | 0.00 | 0.00 | 84 | 25.8 |
| 20260502162128 | 28 | 326 | 6.4 | 11.3 | 18.14 | 0.00 | 0.00 | 84 | 25.9 |
| 20260502161551 | 28 | 326 | 6.4 | 11.3 | 17.60 | 0.00 | 0.00 | 83 | 27.7 |
| 20260502161051 | 28 | 310 | 4.8 | 9.7 | 17.04 | 0.00 | 0.00 | 83 | 29.1 |
| 20260502160529 | 27 | 313 | 4.8 | 8.0 | 16.48 | 0.00 | 0.00 | 82 | 29.6 |
| 20260502152131 | 24 | 343 | 3.2 | 8.0 | 11.33 | 0.00 | 0.00 | 76 | 39.4 |
| 20260502151529 | 23 | 340 | 3.2 | 4.8 | 10.74 | 0.00 | 0.00 | 75 | 41.2 |
| 20260502151050 | 23 | 343 | 4.8 | 8.0 | 10.16 | 0.00 | 0.00 | 74 | 42.7 |
| 20260502150530 | 22 | 327 | 4.8 | 8.0 | 9.58 | 0.00 | 0.00 | 73 | 44.3 |
| 20260502130534 | 20 | 282 | 4.8 | 6.4 | 17.81 | 0.00 | 0.00 | 68 | 49.4 |
| 20260502123602 | 20 | 310 | 4.8 | 6.4 | 13.94 | 0.00 | 0.00 | 68 | 48.2 |
| 20260502123132 | 19 | 301 | 6.4 | 6.4 | 14.02 | 0.00 | 0.00 | 67 | 48.2 |
| 20260502122710 | 19 | 275 | 4.8 | 6.4 | 14.17 | 0.00 | 0.00 | 67 | 49.2 |
| 20260502122159 | 20 | 282 | 6.4 | 8.0 | 14.17 | 0.00 | 0.00 | 68 | 47.6 |
| 20260502121552 | 20 | 286 | 6.4 | 9.7 | 14.17 | 0.00 | 0.00 | 68 | 46.0 |
| 20260502121114 | 20 | 293 | 4.8 | 6.4 | 14.17 | 0.00 | 0.00 | 68 | 46.5 |
| 20260502120555 | 20 | 312 | 6.4 | 9.7 | 14.17 | 0.00 | 0.00 | 68 | 45.9 |
| 20260502120105 | 19 | 299 | 4.8 | 8.0 | 14.17 | 0.00 | 0.00 | 66 | 48.3 |
| 20260502115706 | 18 | 295 | 4.8 | 6.4 | 14.17 | 0.00 | 0.00 | 66 | 48.8 |
| 20260502115143 | 20 | 313 | 6.4 | 9.7 | 14.17 | 0.00 | 0.00 | 68 | 45.5 |
| 20260502114614 | 20 | 331 | 6.4 | 9.7 | 14.17 | 0.00 | 0.00 | 69 | 43.9 |
| 20260502114031 | 21 | 342 | 3.2 | 8.0 | 14.17 | 0.00 | 0.00 | 70 | 42.8 |
| 20260502113611 | 21 | 1 | 3.2 | 8.0 | 14.20 | 0.00 | 0.00 | 71 | 42.2 |
| 20260502113158 | 21 | 0 | 4.8 | 8.0 | 14.12 | 0.00 | 0.00 | 71 | 41.5 |
| 20260502112717 | 21 | 15 | 1.6 | 4.8 | 13.97 | 0.00 | 0.00 | 70 | 42.7 |
| 20260502112202 | 21 | 238 | 0.0 | 1.6 | 13.97 | 0.00 | 0.00 | 71 | 43.0 |
| 20260502111551 | 21 | 341 | 1.6 | 3.2 | 13.97 | 0.00 | 0.00 | 71 | 42.3 |
| 20260502111134 | 21 | 17 | 1.6 | 4.8 | 14.05 | 0.00 | 0.00 | 70 | 44.6 |
| 20260502110741 | 21 | 41 | 1.6 | 3.2 | 14.05 | 0.00 | 0.00 | 71 | 43.0 |
| 20260502110143 | 21 | 280 | 4.8 | 6.4 | 14.05 | 0.00 | 0.00 | 71 | 44.3 |
| 20260502105700 | 21 | 236 | 4.8 | 6.4 | 14.05 | 0.00 | 0.00 | 71 | 45.4 |
| 20260502105145 | 22 | 294 | 4.8 | 6.4 | 14.05 | 0.00 | 0.00 | 72 | 41.8 |
| 20260502104551 | 22 | 306 | 4.8 | 6.4 | 14.05 | 0.00 | 0.00 | 72 | 42.9 |
| 20260502104110 | 22 | 286 | 4.8 | 4.8 | 14.05 | 0.00 | 0.00 | 72 | 43.4 |
| 20260502103552 | 22 | 295 | 4.8 | 4.8 | 14.05 | 0.00 | 0.00 | 73 | 41.0 |
| 20260502103122 | 22 | 300 | 3.2 | 6.4 | 14.05 | 0.00 | 0.00 | 73 | 40.7 |
| 20260502102723 | 23 | 310 | 3.2 | 6.4 | 14.05 | 0.00 | 0.00 | 74 | 39.2 |
| 20260502102206 | 23 | 317 | 3.2 | 4.8 | 14.05 | 0.00 | 0.00 | 74 | 39.8 |
| 20260502101538 | 23 | 293 | 3.2 | 4.8 | 14.05 | 0.00 | 0.00 | 74 | 40.0 |
| 20260502101116 | 23 | 302 | 1.6 | 3.2 | 14.00 | 0.00 | 0.00 | 74 | 40.5 |
| 20260502100538 | 23 | 306 | 1.6 | 3.2 | 14.00 | 0.00 | 0.00 | 74 | 40.6 |
| 20260502091531 | 21 | 357 | 1.6 | 3.2 | 14.05 | 0.00 | 0.00 | 70 | 46.8 |
| 20260502091112 | 21 | 71 | 4.8 | 11.3 | 14.05 | 0.00 | 0.00 | 71 | 45.7 |
| 20260502090601 | 22 | 295 | 3.2 | 4.8 | 14.05 | 0.00 | 0.00 | 73 | 43.7 |
| 20260502071301 | 23 | 309 | 6.4 | 8.0 | 14.15 | 0.00 | 0.00 | 75 | 40.2 |
| 20260502070752 | 25 | 318 | 4.8 | 8.0 | 14.15 | 0.00 | 0.00 | 77 | 37.8 |
| 20260502070028 | 25 | 323 | 4.8 | 9.7 | 14.15 | 0.00 | 0.00 | 77 | 36.6 |
| 20260502065536 | 25 | 310 | 4.8 | 6.4 | 14.15 | 0.00 | 0.00 | 77 | 35.7 |
| 20260502065109 | 25 | 319 | 4.8 | 4.8 | 14.15 | 0.00 | 0.00 | 77 | 35.3 |
| 20260502064549 | 25 | 318 | 4.8 | 6.4 | 14.15 | 0.00 | 0.00 | 77 | 35.3 |
| 20260502064031 | 24 | 316 | 3.2 | 6.4 | 14.17 | 0.00 | 0.00 | 76 | 35.4 |
| 20260502063617 | 24 | 319 | 3.2 | 6.4 | 14.17 | 0.00 | 0.00 | 76 | 35.2 |
| 20260502063157 | 25 | 310 | 3.2 | 8.0 | 14.17 | 0.00 | 0.00 | 77 | 34.3 |
| 20260502062830 | 25 | 316 | 4.8 | 8.0 | 14.17 | 0.00 | 0.00 | 77 | 34.4 |
| 20260502062315 | 25 | 305 | 6.4 | 9.7 | 14.17 | 0.00 | 0.00 | 77 | 33.6 |
| 20260502061345 | 25 | 296 | 6.4 | 9.7 | 14.20 | 0.00 | 0.00 | 78 | 31.9 |
| 20260502060522 | 26 | 286 | 4.8 | 12.9 | 14.20 | 0.00 | 0.00 | 79 | 30.0 |
| 20260502055816 | 25 | 274 | 8.0 | 11.3 | 14.22 | 0.00 | 0.00 | 77 | 30.6 |
| 20260502054942 | 25 | 301 | 3.2 | 8.0 | 14.25 | 0.00 | 0.00 | 78 | 30.2 |
| 20260502054104 | 26 | 302 | 6.4 | 9.7 | 14.25 | 0.00 | 0.00 | 79 | 29.6 |
| 20260502053416 | 26 | 326 | 4.8 | 6.4 | 14.27 | 0.00 | 0.00 | 80 | 27.0 |
| 20260502052607 | 27 | 335 | 3.2 | 8.0 | 14.27 | 0.00 | 0.00 | 82 | 25.8 |
| 20260502051622 | 28 | 343 | 1.6 | 4.8 | 14.30 | 0.00 | 0.00 | 83 | 24.2 |
| 20260502050910 | 28 | 344 | 4.8 | 11.3 | 14.35 | 0.00 | 0.00 | 84 | 23.3 |
| 20260502050041 | 28 | 349 | 4.8 | 9.7 | 14.35 | 0.00 | 0.00 | 83 | 23.4 |
| 20260502045418 | 27 | 278 | 6.4 | 9.7 | 14.35 | 0.00 | 0.00 | 82 | 24.2 |
| 20260502044633 | 27 | 280 | 6.4 | 9.7 | 14.35 | 0.00 | 0.00 | 82 | 23.7 |
| 20260502044030 | 28 | 306 | 4.8 | 8.0 | 14.35 | 0.00 | 0.00 | 83 | 23.3 |
| 20260502043503 | 29 | 337 | 4.8 | 8.0 | 14.33 | 0.00 | 0.00 | 85 | 21.2 |
| 20260502042835 | 29 | 335 | 4.8 | 9.7 | 14.33 | 0.00 | 0.00 | 86 | 20.8 |
| 20260502042103 | 30 | 328 | 6.4 | 9.7 | 14.33 | 0.00 | 0.00 | 86 | 20.2 |
| 20260502041229 | 29 | 332 | 8.0 | 14.5 | 14.33 | 0.00 | 0.00 | 85 | 20.4 |
| 20260502040622 | 27 | 325 | 9.7 | 14.5 | 14.27 | 0.00 | 0.00 | 82 | 22.5 |
| 20260502040030 | 27 | 318 | 8.0 | 12.9 | 14.27 | 0.00 | 0.00 | 82 | 24.1 |
| 20260502035609 | 27 | 313 | 6.4 | 9.7 | 14.27 | 0.00 | 0.00 | 81 | 26.0 |
| 20260502035104 | 27 | 316 | 4.8 | 9.7 | 14.27 | 0.00 | 0.00 | 81 | 27.5 |
| 20260502034553 | 27 | 315 | 6.4 | 9.7 | 14.27 | 0.00 | 0.00 | 82 | 26.2 |
| 20260502034031 | 27 | 357 | 4.8 | 11.3 | 14.27 | 0.00 | 0.00 | 82 | 27.6 |
| 20260502033532 | 27 | 298 | 4.8 | 8.0 | 14.27 | 0.00 | 0.00 | 82 | 28.0 |
| 20260502033030 | 28 | 286 | 6.4 | 11.3 | 14.30 | 0.00 | 0.00 | 83 | 27.3 |
| 20260502032558 | 28 | 289 | 4.8 | 8.0 | 14.55 | 0.00 | 0.00 | 84 | 26.4 |
| 20260502032127 | 28 | 284 | 8.0 | 11.3 | 15.52 | 0.00 | 0.00 | 84 | 25.7 |
| 20260502031531 | 27 | 293 | 6.4 | 9.7 | 17.50 | 0.00 | 0.00 | 82 | 27.9 |
| 20260502031112 | 27 | 299 | 9.7 | 16.1 | 20.78 | 0.00 | 0.00 | 82 | 28.9 |
| 20260502030600 | 26 | 303 | 8.0 | 12.9 | 2.62 | 0.00 | 0.00 | 80 | 31.8 |
| 20260502030032 | 27 | 316 | 9.7 | 12.9 | 3.66 | 0.00 | 0.00 | 82 | 32.9 |
| 20260502025606 | 29 | 334 | 4.8 | 12.9 | 5.13 | 0.00 | 0.00 | 85 | 31.1 |
| 20260502025118 | 29 | 6 | 3.2 | 6.4 | 6.91 | 0.00 | 0.00 | 85 | 31.2 |
| 20260502024552 | 29 | 1 | 3.2 | 6.4 | 8.38 | 0.00 | 0.00 | 85 | 30.4 |
| 20260502024052 | 29 | 48 | 3.2 | 4.8 | 10.54 | 0.00 | 0.00 | 86 | 29.9 |
| 20260502023531 | 30 | 130 | 4.8 | 6.4 | 13.46 | 0.00 | 0.00 | 86 | 28.9 |
| 20260502023030 | 30 | 140 | 6.4 | 9.7 | 16.69 | 0.00 | 0.00 | 87 | 28.1 |
| 20260502022624 | 30 | 148 | 8.0 | 9.7 | 20.55 | 0.00 | 0.00 | 87 | 27.2 |
| 20260502022134 | 30 | 147 | 6.4 | 9.7 | 24.82 | 0.00 | 0.00 | 87 | 27.1 |
| 20260502021533 | 30 | 149 | 4.8 | 8.0 | 2.92 | 0.00 | 0.00 | 87 | 27.3 |
| 20260502021110 | 31 | 166 | 3.2 | 6.4 | 3.43 | 0.00 | 0.00 | 88 | 26.3 |
| 20260502020534 | 31 | 157 | 6.4 | 9.7 | 3.94 | 0.00 | 0.00 | 89 | 25.8 |
| 20260502020031 | 31 | 137 | 8.0 | 11.3 | 4.45 | 0.00 | 0.00 | 89 | 22.6 |
| 20260502015612 | 32 | 128 | 4.8 | 6.4 | 4.95 | 0.00 | 0.00 | 90 | 22.2 |
| 20260502015120 | 32 | 128 | 6.4 | 9.7 | 5.49 | 0.00 | 0.00 | 90 | 21.4 |
| 20260502014550 | 32 | 131 | 4.8 | 8.0 | 6.12 | 0.00 | 0.00 | 90 | 21.3 |
| 20260502014032 | 32 | 135 | 6.4 | 12.9 | 6.73 | 0.00 | 0.00 | 90 | 21.1 |
| 20260502013551 | 32 | 135 | 6.4 | 14.5 | 7.29 | 0.00 | 0.00 | 90 | 21.1 |
| 20260502013031 | 32 | 131 | 8.0 | 14.5 | 7.82 | 0.00 | 0.00 | 91 | 20.6 |
| 20260502012618 | 32 | 137 | 8.0 | 14.5 | 8.26 | 0.00 | 0.00 | 91 | 20.5 |
| 20260502012057 | 32 | 131 | 12.9 | 19.3 | 8.81 | 0.00 | 0.00 | 91 | 21.0 |
| 20260502011532 | 33 | 126 | 12.9 | 17.7 | 9.40 | 0.00 | 0.00 | 92 | 21.3 |
| 20260502011051 | 33 | 124 | 12.9 | 19.3 | 9.96 | 0.00 | 0.00 | 93 | 20.0 |
| 20260502010533 | 33 | 139 | 8.0 | 12.9 | 10.19 | 0.00 | 0.00 | 93 | 17.2 |
| 20260502010029 | 33 | 144 | 9.7 | 14.5 | 10.77 | 0.00 | 0.00 | 93 | 16.9 |
| 20260502005544 | 33 | 149 | 9.7 | 14.5 | 11.38 | 0.00 | 0.00 | 93 | 17.8 |
| 20260502005051 | 33 | 151 | 9.7 | 14.5 | 11.96 | 0.00 | 0.00 | 93 | 18.3 |
| 20260502004529 | 33 | 144 | 9.7 | 14.5 | 12.55 | 0.00 | 0.00 | 93 | 18.0 |
| 20260502004050 | 33 | 123 | 11.3 | 14.5 | 13.13 | 0.00 | 0.00 | 93 | 17.5 |
| 20260502003533 | 33 | 125 | 9.7 | 14.5 | 13.72 | 0.00 | 0.00 | 93 | 17.8 |
| 20260502003058 | 33 | 119 | 11.3 | 16.1 | 14.35 | 0.00 | 0.00 | 93 | 18.1 |
| 20260502002706 | 33 | 123 | 11.3 | 17.7 | 15.06 | 0.00 | 0.00 | 93 | 17.0 |
| 20260502002130 | 33 | 124 | 11.3 | 17.7 | 15.65 | 0.00 | 0.00 | 93 | 15.8 |
| 20260502001531 | 33 | 122 | 14.5 | 19.3 | 16.21 | 0.00 | 0.00 | 93 | 15.6 |
| 20260502001050 | 33 | 136 | 11.3 | 17.7 | 16.79 | 0.00 | 0.00 | 93 | 16.0 |
| 20260502000533 | 33 | 134 | 11.3 | 19.3 | 17.73 | 0.00 | 0.00 | 93 | 16.5 |
| 20260502000032 | 33 | 148 | 12.9 | 19.3 | 18.26 | 0.00 | 0.00 | 93 | 16.5 |
| 20260501235624 | 33 | 151 | 12.9 | 19.3 | 18.82 | 0.00 | 0.00 | 93 | 16.9 |